Time,TemperatureF,DewpointF,PressureIn,WindDirection,WindDirectionDegrees,WindSpeedMPH,WindSpeedGustMPH,Humidity,HourlyPrecipIn,Conditions,Clouds,dailyrainin,SoftwareType,DateUTC
2013-06-19 00:00:00,62.4,50.5,30.09,ESE,112,0.0,2.2,65,0.00,,CLR,0.00,VWS V14.01,2013-06-19 04:00:00,
2013-06-19 00:01:00,62.4,50.5,30.09,ESE,112,0.0,2.2,65,0.00,,CLR,0.00,VWS V14.01,2013-06-19 04:01:00,
2013-06-19 00:02:00,50.9,38.0,30.12,ENE,68,7.6,7.6,61,0.00,,CLR,0.00,VWS V14.01,2013-06-19 04:02:00,
2013-06-19 00:03:00,50.9,38.0,30.12,ENE,68,7.6,7.6,61,0.00,,CLR,0.00,VWS V14.01,2013-06-19 04:03:00,
2013-06-19 00:04:00,62.2,50.3,30.09,ESE,112,0.0,2.2,65,0.00,,CLR,0.00,VWS V14.01,2013-06-19 04:04:00,
2013-06-19 00:05:00,50.9,38.0,30.12,ENE,68,7.6,7.6,61,0.00,,CLR,0.00,VWS V14.01,2013-06-19 04:05:00,
2013-06-19 00:06:00,50.9,38.0,30.12,ENE,68,7.6,7.6,61,0.00,,CLR,0.00,VWS V14.01,2013-06-19 04:06:00,
2013-06-19 00:09:00,50.9,38.0,30.12,ENE,68,7.6,7.6,61,0.00,,CLR,0.00,VWS V14.01,2013-06-19 04:09:00,
2013-06-19 00:14:00,50.7,37.4,30.12,ENE,68,7.6,7.6,60,0.00,,CLR,0.00,VWS V14.01,2013-06-19 04:14:00,
2013-06-19 00:19:00,50.2,36.4,30.12,ENE,68,7.6,7.6,59,0.00,,CLR,0.00,VWS V14.01,2013-06-19 04:19:00,
2013-06-19 00:24:00,49.8,36.5,30.12,ENE,68,7.6,7.6,60,0.00,,CLR,0.00,VWS V14.01,2013-06-19 04:24:00,
2013-06-19 00:29:00,49.1,36.2,30.12,ENE,68,7.6,7.6,61,0.00,,CLR,0.00,VWS V14.01,2013-06-19 04:29:00,
2013-06-19 00:34:00,48.7,35.9,30.12,ENE,68,7.6,7.6,61,0.00,,CLR,0.00,VWS V14.01,2013-06-19 04:34:00,
2013-06-19 00:39:00,48.4,36.0,30.12,ENE,68,7.6,7.6,62,0.00,,CLR,0.00,VWS V14.01,2013-06-19 04:39:00,
2013-06-19 00:44:00,48.4,36.0,30.12,ENE,68,7.6,7.6,62,0.00,,CLR,0.00,VWS V14.01,2013-06-19 04:44:00,
2013-06-19 00:49:00,48.0,36.4,30.12,ENE,68,7.6,7.6,64,0.00,,CLR,0.00,VWS V14.01,2013-06-19 04:49:00,
2013-06-19 00:54:00,47.5,35.9,30.12,ENE,68,7.6,7.6,64,0.00,,CLR,0.00,VWS V14.01,2013-06-19 04:54:00,
2013-06-19 00:59:00,47.3,35.8,30.12,ENE,68,7.6,7.6,64,0.00,,CLR,0.00,VWS V14.01,2013-06-19 04:59:00,
2013-06-19 01:00:00,47.1,36.0,30.12,ENE,68,7.6,7.6,65,0.00,,CLR,0.00,VWS V14.01,2013-06-19 05:00:00,
2013-06-19 01:04:00,46.9,35.8,30.12,ENE,68,7.6,7.6,65,0.00,,CLR,0.00,VWS V14.01,2013-06-19 05:04:00,
2013-06-19 01:09:00,46.9,36.2,30.12,ENE,68,7.6,7.6,66,0.00,,CLR,0.00,VWS V14.01,2013-06-19 05:09:00,
2013-06-19 01:14:00,47.3,36.9,30.12,ENE,68,7.6,7.6,67,0.00,,CLR,0.00,VWS V14.01,2013-06-19 05:14:00,
2013-06-19 01:19:00,47.7,37.3,30.12,ENE,68,7.6,7.6,67,0.00,,CLR,0.00,VWS V14.01,2013-06-19 05:19:00,
2013-06-19 01:24:00,47.8,37.4,30.12,ENE,68,7.6,7.6,67,0.00,,CLR,0.00,VWS V14.01,2013-06-19 05:24:00,
2013-06-19 01:29:00,48.2,37.4,30.12,ENE,68,7.6,7.6,66,0.00,,CLR,0.00,VWS V14.01,2013-06-19 05:29:00,
2013-06-19 01:34:00,48.4,37.9,30.12,ENE,68,7.6,7.6,67,0.00,,CLR,0.00,VWS V14.01,2013-06-19 05:34:00,
2013-06-19 01:39:00,47.8,39.6,30.12,ENE,68,7.6,7.6,73,0.00,,CLR,0.00,VWS V14.01,2013-06-19 05:39:00,
2013-06-19 01:44:00,47.3,39.5,30.12,ENE,68,7.6,7.6,74,0.00,,CLR,0.00,VWS V14.01,2013-06-19 05:44:00,
2013-06-19 01:49:00,47.3,39.1,30.12,ENE,68,7.6,7.6,73,0.00,,CLR,0.00,VWS V14.01,2013-06-19 05:49:00,
2013-06-19 01:54:00,46.6,37.3,30.12,ENE,68,7.6,7.6,70,0.00,,CLR,0.00,VWS V14.01,2013-06-19 05:54:00,
2013-06-19 01:59:00,46.0,36.8,30.12,ENE,68,7.6,7.6,70,0.00,,CLR,0.00,VWS V14.01,2013-06-19 05:59:00,
2013-06-19 02:00:00,46.0,36.8,30.12,ENE,68,7.6,7.6,70,0.00,,CLR,0.00,VWS V14.01,2013-06-19 06:00:00,
2013-06-19 02:04:00,45.9,36.6,30.15,ENE,68,7.6,7.6,70,0.00,,CLR,0.00,VWS V14.01,2013-06-19 06:04:00,
2013-06-19 02:09:00,46.2,37.0,30.15,ENE,68,7.6,7.6,70,0.00,,CLR,0.00,VWS V14.01,2013-06-19 06:09:00,
2013-06-19 02:14:00,46.0,36.8,30.15,ENE,68,7.6,7.6,70,0.00,,CLR,0.00,VWS V14.01,2013-06-19 06:14:00,
2013-06-19 02:19:00,45.9,37.4,30.15,ENE,68,7.6,7.6,72,0.00,,CLR,0.00,VWS V14.01,2013-06-19 06:19:00,
2013-06-19 02:24:00,45.5,38.4,30.15,ENE,68,7.6,7.6,76,0.00,,CLR,0.00,VWS V14.01,2013-06-19 06:24:00,
2013-06-19 02:29:00,45.7,37.9,30.15,ENE,68,7.6,7.6,74,0.00,,CLR,0.00,VWS V14.01,2013-06-19 06:29:00,
2013-06-19 02:34:00,45.5,37.7,30.15,ENE,68,7.6,7.6,74,0.00,,CLR,0.00,VWS V14.01,2013-06-19 06:34:00,
2013-06-19 02:39:00,45.9,38.0,30.15,ENE,68,7.6,7.6,74,0.00,,CLR,0.00,VWS V14.01,2013-06-19 06:39:00,
2013-06-19 02:44:00,45.5,38.7,30.15,ENE,68,7.6,7.6,77,0.00,,CLR,0.00,VWS V14.01,2013-06-19 06:44:00,
2013-06-19 02:49:00,45.5,38.7,30.15,ENE,68,7.6,7.6,77,0.00,,CLR,0.00,VWS V14.01,2013-06-19 06:49:00,
2013-06-19 02:54:00,45.5,38.7,30.15,ENE,68,7.6,7.6,77,0.00,,CLR,0.00,VWS V14.01,2013-06-19 06:54:00,
2013-06-19 02:59:00,45.1,39.3,30.15,ENE,68,7.6,7.6,80,0.00,,CLR,0.00,VWS V14.01,2013-06-19 06:59:00,
2013-06-19 03:00:00,45.1,39.3,30.15,ENE,68,7.6,7.6,80,0.00,,CLR,0.00,VWS V14.01,2013-06-19 07:00:00,
2013-06-19 03:04:00,44.8,38.3,30.15,ENE,68,7.6,7.6,78,0.00,,CLR,0.00,VWS V14.01,2013-06-19 07:04:00,
2013-06-19 03:09:00,44.6,37.8,30.15,ENE,68,7.6,7.6,77,0.00,,CLR,0.00,VWS V14.01,2013-06-19 07:09:00,
2013-06-19 03:14:00,44.6,38.5,30.15,ENE,68,7.6,7.6,79,0.00,,CLR,0.00,VWS V14.01,2013-06-19 07:14:00,
2013-06-19 03:19:00,44.2,37.8,30.15,ENE,68,7.6,7.6,78,0.00,,CLR,0.00,VWS V14.01,2013-06-19 07:19:00,
2013-06-19 03:24:00,44.2,37.5,30.15,ENE,68,7.6,7.6,77,0.00,,CLR,0.00,VWS V14.01,2013-06-19 07:24:00,
2013-06-19 03:29:00,43.9,37.2,30.15,ENE,68,7.6,7.6,77,0.00,,CLR,0.00,VWS V14.01,2013-06-19 07:29:00,
2013-06-19 03:34:00,43.7,37.0,30.15,ENE,68,7.6,7.6,77,0.00,,CLR,0.00,VWS V14.01,2013-06-19 07:34:00,
2013-06-19 03:39:00,43.3,37.0,30.15,ENE,68,7.6,7.6,78,0.00,,CLR,0.00,VWS V14.01,2013-06-19 07:39:00,
2013-06-19 03:44:00,43.3,37.3,30.15,ENE,68,7.6,7.6,79,0.00,,CLR,0.00,VWS V14.01,2013-06-19 07:44:00,
2013-06-19 03:49:00,43.7,37.6,30.15,ENE,68,7.6,7.6,79,0.00,,CLR,0.00,VWS V14.01,2013-06-19 07:49:00,
2013-06-19 03:54:00,43.9,37.8,30.15,ENE,68,7.6,7.6,79,0.00,,CLR,0.00,VWS V14.01,2013-06-19 07:54:00,
2013-06-19 03:59:00,43.7,37.6,30.15,ENE,68,7.6,7.6,79,0.00,,CLR,0.00,VWS V14.01,2013-06-19 07:59:00,
2013-06-19 04:00:00,43.7,37.6,30.15,ENE,68,7.6,7.6,79,0.00,,CLR,0.00,VWS V14.01,2013-06-19 08:00:00,
2013-06-19 04:05:00,43.9,38.1,30.15,ENE,68,7.6,7.6,80,0.00,,CLR,0.00,VWS V14.01,2013-06-19 08:05:00,
2013-06-19 04:10:00,43.7,38.0,30.15,ENE,68,7.6,7.6,80,0.00,,CLR,0.00,VWS V14.01,2013-06-19 08:10:00,
2013-06-19 04:15:00,43.9,38.1,30.15,ENE,68,7.6,7.6,80,0.00,,CLR,0.00,VWS V14.01,2013-06-19 08:15:00,
2013-06-19 04:20:00,43.9,38.4,30.15,ENE,68,7.6,7.6,81,0.00,,CLR,0.00,VWS V14.01,2013-06-19 08:20:00,
2013-06-19 04:25:00,43.9,38.4,30.15,ENE,68,7.6,7.6,81,0.00,,CLR,0.00,VWS V14.01,2013-06-19 08:25:00,
2013-06-19 04:30:00,43.9,39.1,30.15,ENE,68,7.6,7.6,83,0.00,,CLR,0.00,VWS V14.01,2013-06-19 08:30:00,
2013-06-19 04:35:00,43.5,38.7,30.15,ENE,68,7.6,7.6,83,0.00,,CLR,0.00,VWS V14.01,2013-06-19 08:35:00,
2013-06-19 04:40:00,43.3,38.5,30.15,ENE,68,7.6,7.6,83,0.00,,CLR,0.00,VWS V14.01,2013-06-19 08:40:00,
2013-06-19 04:45:00,43.0,37.9,30.15,ENE,68,7.6,7.6,82,0.00,,CLR,0.00,VWS V14.01,2013-06-19 08:45:00,
2013-06-19 04:50:00,42.8,38.0,30.18,ENE,68,7.6,7.6,83,0.00,,CLR,0.00,VWS V14.01,2013-06-19 08:50:00,
2013-06-19 04:55:00,42.8,38.0,30.18,ENE,68,7.6,7.6,83,0.00,,CLR,0.00,VWS V14.01,2013-06-19 08:55:00,
2013-06-19 05:00:00,42.6,37.8,30.18,ENE,68,7.6,7.6,83,0.00,,CLR,0.00,VWS V14.01,2013-06-19 09:00:00,
2013-06-19 05:05:00,43.0,38.2,30.18,ENE,68,7.6,7.6,83,0.00,,CLR,0.00,VWS V14.01,2013-06-19 09:05:00,
2013-06-19 05:10:00,43.0,38.2,30.18,ENE,68,7.6,7.6,83,0.00,,CLR,0.00,VWS V14.01,2013-06-19 09:10:00,
2013-06-19 05:15:00,42.8,38.0,30.18,ENE,68,7.6,7.6,83,0.00,,CLR,0.00,VWS V14.01,2013-06-19 09:15:00,
2013-06-19 05:20:00,43.2,38.7,30.18,ENE,68,7.6,7.6,84,0.00,,CLR,0.00,VWS V14.01,2013-06-19 09:20:00,
2013-06-19 05:25:00,43.0,38.5,30.18,ENE,68,7.6,7.6,84,0.00,,CLR,0.00,VWS V14.01,2013-06-19 09:25:00,
2013-06-19 05:30:00,42.8,38.3,30.18,ENE,68,7.6,7.6,84,0.00,,CLR,0.00,VWS V14.01,2013-06-19 09:30:00,
2013-06-19 05:35:00,43.2,39.0,30.21,ENE,68,7.6,7.6,85,0.00,,CLR,0.00,VWS V14.01,2013-06-19 09:35:00,
2013-06-19 05:40:00,43.2,39.0,30.21,ENE,68,7.6,7.6,85,0.00,,CLR,0.00,VWS V14.01,2013-06-19 09:40:00,
2013-06-19 05:45:00,43.2,39.0,30.21,ENE,68,7.6,7.6,85,0.00,,CLR,0.00,VWS V14.01,2013-06-19 09:45:00,
2013-06-19 05:50:00,43.0,38.8,30.21,ENE,68,7.6,7.6,85,0.00,,CLR,0.00,VWS V14.01,2013-06-19 09:50:00,
2013-06-19 05:55:00,42.8,38.6,30.21,ENE,68,7.6,7.6,85,0.00,,CLR,0.00,VWS V14.01,2013-06-19 09:55:00,
2013-06-19 06:00:00,42.6,38.4,30.21,ENE,68,7.6,7.6,85,0.00,,CLR,0.00,VWS V14.01,2013-06-19 10:00:00,
2013-06-19 06:05:00,43.0,38.8,30.18,ENE,68,7.6,7.6,85,0.00,,CLR,0.00,VWS V14.01,2013-06-19 10:05:00,
2013-06-19 06:10:00,43.7,39.8,30.18,ENE,68,7.6,7.6,86,0.00,,CLR,0.00,VWS V14.01,2013-06-19 10:10:00,
2013-06-19 06:15:00,44.4,40.5,30.18,ENE,68,7.6,7.6,86,0.00,,CLR,0.00,VWS V14.01,2013-06-19 10:15:00,
2013-06-19 06:20:00,45.5,41.3,30.21,ENE,68,7.6,7.6,85,0.00,,CLR,0.00,VWS V14.01,2013-06-19 10:20:00,
2013-06-19 06:25:00,46.4,42.1,30.21,ENE,68,7.6,7.6,85,0.00,,CLR,0.00,VWS V14.01,2013-06-19 10:25:00,
2013-06-19 06:30:00,47.3,43.0,30.21,ENE,68,7.6,7.6,85,0.00,,CLR,0.00,VWS V14.01,2013-06-19 10:30:00,
2013-06-19 06:35:00,48.2,43.6,30.21,ENE,68,7.6,7.6,84,0.00,,CLR,0.00,VWS V14.01,2013-06-19 10:35:00,
2013-06-19 06:40:00,48.9,44.3,30.21,ENE,68,7.6,7.6,84,0.00,,CLR,0.00,VWS V14.01,2013-06-19 10:40:00,
2013-06-19 06:45:00,49.6,44.7,30.21,ENE,68,7.6,7.6,83,0.00,,CLR,0.00,VWS V14.01,2013-06-19 10:45:00,
2013-06-19 06:50:00,50.9,45.6,30.21,ENE,68,7.6,7.6,82,0.00,,CLR,0.00,VWS V14.01,2013-06-19 10:50:00,
2013-06-19 06:55:00,51.8,46.5,30.21,ENE,68,7.6,7.6,82,0.00,,CLR,0.00,VWS V14.01,2013-06-19 10:55:00,
2013-06-19 07:00:00,53.1,47.4,30.21,ENE,68,7.6,7.6,81,0.00,,CLR,0.00,VWS V14.01,2013-06-19 11:00:00,
2013-06-19 07:05:00,53.6,45.9,30.21,ENE,68,7.6,7.6,75,0.00,,CLR,0.00,VWS V14.01,2013-06-19 11:05:00,
2013-06-19 07:10:00,54.7,45.5,30.21,ENE,68,7.6,7.6,71,0.00,,CLR,0.00,VWS V14.01,2013-06-19 11:10:00,
2013-06-19 07:15:00,55.4,45.4,30.21,ENE,68,7.6,7.6,69,0.00,,CLR,0.00,VWS V14.01,2013-06-19 11:15:00,
2013-06-19 07:20:00,56.1,44.5,30.21,ENE,68,7.6,7.6,65,0.00,,CLR,0.00,VWS V14.01,2013-06-19 11:20:00,
2013-06-19 07:25:00,56.7,43.0,30.21,ENE,68,7.6,7.6,60,0.00,,CLR,0.00,VWS V14.01,2013-06-19 11:25:00,
2013-06-19 07:30:00,57.7,44.4,30.21,ENE,68,7.6,7.6,61,0.00,,CLR,0.00,VWS V14.01,2013-06-19 11:30:00,
2013-06-19 07:35:00,58.6,44.8,30.21,ENE,68,7.6,7.6,60,0.00,,CLR,0.00,VWS V14.01,2013-06-19 11:35:00,
2013-06-19 07:40:00,59.5,44.8,30.21,ENE,68,7.6,7.6,58,0.00,,CLR,0.00,VWS V14.01,2013-06-19 11:40:00,
2013-06-19 07:45:00,59.9,42.7,30.21,ENE,68,7.6,7.6,53,0.00,,CLR,0.00,VWS V14.01,2013-06-19 11:45:00,
2013-06-19 07:50:00,60.3,42.6,30.21,ENE,68,7.6,7.6,52,0.00,,CLR,0.00,VWS V14.01,2013-06-19 11:50:00,
2013-06-19 07:55:00,60.4,41.7,30.21,ENE,68,7.6,7.6,50,0.00,,CLR,0.00,VWS V14.01,2013-06-19 11:55:00,
2013-06-19 08:00:00,61.0,42.2,30.21,ENE,68,7.6,7.6,50,0.00,,CLR,0.00,VWS V14.01,2013-06-19 12:00:00,
2013-06-19 08:05:00,61.5,42.2,30.21,ENE,68,7.6,7.6,49,0.00,,CLR,0.00,VWS V14.01,2013-06-19 12:05:00,
2013-06-19 08:10:00,62.4,43.5,30.21,ENE,68,7.6,7.6,50,0.00,,CLR,0.00,VWS V14.01,2013-06-19 12:10:00,
2013-06-19 08:15:00,62.6,41.5,30.21,ENE,68,7.6,7.6,46,0.00,,CLR,0.00,VWS V14.01,2013-06-19 12:15:00,
2013-06-19 08:21:00,62.4,40.8,30.21,ENE,68,7.6,7.6,45,0.00,,CLR,0.00,VWS V14.01,2013-06-19 12:21:00,
2013-06-19 08:26:00,62.2,40.7,30.21,ENE,68,7.6,7.6,45,0.00,,CLR,0.00,VWS V14.01,2013-06-19 12:26:00,
2013-06-19 08:31:00,62.1,40.5,30.21,ENE,68,7.6,7.6,45,0.00,,CLR,0.00,VWS V14.01,2013-06-19 12:31:00,
2013-06-19 08:36:00,62.6,41.0,30.21,ENE,68,7.6,7.6,45,0.00,,CLR,0.00,VWS V14.01,2013-06-19 12:36:00,
2013-06-19 08:41:00,63.1,40.3,30.21,ENE,68,7.6,7.6,43,0.00,,CLR,0.00,VWS V14.01,2013-06-19 12:41:00,
2013-06-19 08:46:00,63.1,40.3,30.21,ENE,68,7.6,7.6,43,0.00,,CLR,0.00,VWS V14.01,2013-06-19 12:46:00,
2013-06-19 08:51:00,63.7,39.6,30.21,ENE,68,7.6,7.6,41,0.00,,CLR,0.00,VWS V14.01,2013-06-19 12:51:00,
2013-06-19 08:56:00,64.2,41.3,30.21,ENE,68,7.6,7.6,43,0.00,,CLR,0.00,VWS V14.01,2013-06-19 12:56:00,
2013-06-19 09:00:00,64.6,40.4,30.21,ENE,68,7.6,7.6,41,0.00,,CLR,0.00,VWS V14.01,2013-06-19 13:00:00,
2013-06-19 09:01:00,64.6,40.4,30.21,ENE,68,7.6,7.6,41,0.00,,CLR,0.00,VWS V14.01,2013-06-19 13:01:00,
2013-06-19 09:06:00,65.1,39.6,30.21,ENE,68,7.6,7.6,39,0.00,,CLR,0.00,VWS V14.01,2013-06-19 13:06:00,
2013-06-19 09:11:00,65.8,41.5,30.21,ENE,68,7.6,7.6,41,0.00,,CLR,0.00,VWS V14.01,2013-06-19 13:11:00,
2013-06-19 09:16:00,66.2,39.2,30.21,ENE,68,7.6,7.6,37,0.00,,CLR,0.00,VWS V14.01,2013-06-19 13:16:00,
2013-06-19 09:22:00,66.7,40.3,30.21,ENE,68,7.6,7.6,38,0.00,,CLR,0.00,VWS V14.01,2013-06-19 13:22:00,
2013-06-19 09:27:00,67.5,41.0,30.21,ENE,68,7.6,7.6,38,0.00,,CLR,0.00,VWS V14.01,2013-06-19 13:27:00,
2013-06-19 09:32:00,68.0,38.6,30.21,ENE,68,7.6,7.6,34,0.00,,CLR,0.00,VWS V14.01,2013-06-19 13:32:00,
2013-06-19 09:37:00,68.4,39.7,30.21,ENE,68,7.6,7.6,35,0.00,,CLR,0.00,VWS V14.01,2013-06-19 13:37:00,
2013-06-19 09:42:00,68.5,39.1,30.21,ENE,68,7.6,7.6,34,0.00,,CLR,0.00,VWS V14.01,2013-06-19 13:42:00,
2013-06-19 09:47:00,69.3,40.5,30.21,ENE,68,7.6,7.6,35,0.00,,CLR,0.00,VWS V14.01,2013-06-19 13:47:00,
2013-06-19 09:52:00,69.4,39.9,30.21,ENE,68,7.6,7.6,34,0.00,,CLR,0.00,VWS V14.01,2013-06-19 13:52:00,
2013-06-19 09:57:00,70.0,39.6,30.21,ENE,68,7.6,7.6,33,0.00,,CLR,0.00,VWS V14.01,2013-06-19 13:57:00,
2013-06-19 10:00:00,70.2,39.7,30.21,ENE,68,7.6,7.6,33,0.00,,CLR,0.00,VWS V14.01,2013-06-19 14:00:00,
2013-06-19 10:02:00,70.9,41.1,30.21,ENE,68,7.6,7.6,34,0.00,,CLR,0.00,VWS V14.01,2013-06-19 14:02:00,
2013-06-19 10:07:00,71.2,41.5,30.21,ENE,68,7.6,7.6,34,0.00,,CLR,0.00,VWS V14.01,2013-06-19 14:07:00,
2013-06-19 10:12:00,71.8,40.4,30.21,ENE,68,7.6,7.6,32,0.00,,CLR,0.00,VWS V14.01,2013-06-19 14:12:00,
2013-06-19 10:17:00,72.1,40.7,30.18,ENE,68,7.6,7.6,32,0.00,,CLR,0.00,VWS V14.01,2013-06-19 14:17:00,
2013-06-19 10:22:00,72.1,38.2,30.18,ENE,68,7.6,7.6,29,0.00,,CLR,0.00,VWS V14.01,2013-06-19 14:22:00,
2013-06-19 10:27:00,72.5,38.5,30.18,ENE,68,7.6,7.6,29,0.00,,CLR,0.00,VWS V14.01,2013-06-19 14:27:00,
2013-06-19 10:32:00,72.9,38.8,30.18,ENE,68,7.6,7.6,29,0.00,,CLR,0.00,VWS V14.01,2013-06-19 14:32:00,
2013-06-19 10:37:00,73.0,39.8,30.18,ENE,68,7.6,7.6,30,0.00,,CLR,0.00,VWS V14.01,2013-06-19 14:37:00,
2013-06-19 10:43:00,74.3,41.7,30.18,ENE,68,7.6,7.6,31,0.00,,CLR,0.00,VWS V14.01,2013-06-19 14:43:00,
2013-06-19 10:48:00,74.7,42.0,30.18,ENE,68,7.6,7.6,31,0.00,,CLR,0.00,VWS V14.01,2013-06-19 14:48:00,
2013-06-19 10:53:00,75.7,39.4,30.18,ENE,68,7.6,7.6,27,0.00,,CLR,0.00,VWS V14.01,2013-06-19 14:53:00,
2013-06-19 10:58:00,76.3,38.9,30.18,ENE,68,7.6,7.6,26,0.00,,CLR,0.00,VWS V14.01,2013-06-19 14:58:00,
2013-06-19 11:00:00,76.3,38.9,30.18,ENE,68,7.6,7.6,26,0.00,,CLR,0.00,VWS V14.01,2013-06-19 15:00:00,
2013-06-19 11:03:00,76.6,37.2,30.21,ENE,68,7.6,7.6,24,0.00,,CLR,0.00,VWS V14.01,2013-06-19 15:03:00,
2013-06-19 11:08:00,77.2,38.7,30.21,ENE,68,7.6,7.6,25,0.00,,CLR,0.00,VWS V14.01,2013-06-19 15:08:00,
2013-06-19 11:13:00,76.6,37.2,30.21,ENE,68,7.6,7.6,24,0.00,,CLR,0.00,VWS V14.01,2013-06-19 15:13:00,
2013-06-19 11:18:00,76.6,38.2,30.18,ENE,68,7.6,7.6,25,0.00,,CLR,0.00,VWS V14.01,2013-06-19 15:18:00,
2013-06-19 11:23:00,76.8,36.2,30.18,ENE,68,7.6,7.6,23,0.00,,CLR,0.00,VWS V14.01,2013-06-19 15:23:00,
2013-06-19 11:28:00,77.2,37.6,30.18,ENE,68,7.6,7.6,24,0.00,,CLR,0.00,VWS V14.01,2013-06-19 15:28:00,
2013-06-19 11:33:00,77.4,37.8,30.18,ENE,68,7.6,7.6,24,0.00,,CLR,0.00,VWS V14.01,2013-06-19 15:33:00,
2013-06-19 11:38:00,77.4,36.7,30.18,ENE,68,7.6,7.6,23,0.00,,CLR,0.00,VWS V14.01,2013-06-19 15:38:00,
2013-06-19 11:43:00,77.7,37.0,30.18,ENE,68,7.6,7.6,23,0.00,,CLR,0.00,VWS V14.01,2013-06-19 15:43:00,
2013-06-19 11:48:00,78.6,36.6,30.18,ENE,68,7.6,7.6,22,0.00,,CLR,0.00,VWS V14.01,2013-06-19 15:48:00,
2013-06-19 11:53:00,78.1,37.3,30.18,ENE,68,7.6,7.6,23,0.00,,CLR,0.00,VWS V14.01,2013-06-19 15:53:00,
2013-06-19 11:58:00,77.7,34.7,30.18,ENE,68,7.6,7.6,21,0.00,,CLR,0.00,VWS V14.01,2013-06-19 15:58:00,
2013-06-19 12:00:00,77.5,34.6,30.18,ENE,68,7.6,7.6,21,0.00,,CLR,0.00,VWS V14.01,2013-06-19 16:00:00,
2013-06-19 12:03:00,77.9,36.0,30.18,ENE,68,7.6,7.6,22,0.00,,CLR,0.00,VWS V14.01,2013-06-19 16:03:00,
2013-06-19 12:08:00,78.6,37.8,30.18,ENE,68,7.6,7.6,23,0.00,,CLR,0.00,VWS V14.01,2013-06-19 16:08:00,
2013-06-19 12:13:00,78.6,36.6,30.18,ENE,68,7.6,7.6,22,0.00,,CLR,0.00,VWS V14.01,2013-06-19 16:13:00,
2013-06-19 12:18:00,79.5,37.4,30.18,ENE,68,7.6,7.6,22,0.00,,CLR,0.00,VWS V14.01,2013-06-19 16:18:00,
2013-06-19 12:23:00,79.2,35.9,30.18,ENE,68,7.6,7.6,21,0.00,,CLR,0.00,VWS V14.01,2013-06-19 16:23:00,
2013-06-19 12:28:00,79.0,35.8,30.18,ENE,68,7.6,7.6,21,0.00,,CLR,0.00,VWS V14.01,2013-06-19 16:28:00,
2013-06-19 12:33:00,78.8,37.9,30.18,ENE,68,7.6,7.6,23,0.00,,CLR,0.00,VWS V14.01,2013-06-19 16:33:00,
2013-06-19 12:38:00,78.6,36.6,30.18,ENE,68,7.6,7.6,22,0.00,,CLR,0.00,VWS V14.01,2013-06-19 16:38:00,
2013-06-19 12:43:00,78.3,36.3,30.18,ENE,68,7.6,7.6,22,0.00,,CLR,0.00,VWS V14.01,2013-06-19 16:43:00,
2013-06-19 12:48:00,78.3,36.3,30.18,ENE,68,7.6,7.6,22,0.00,,CLR,0.00,VWS V14.01,2013-06-19 16:48:00,
2013-06-19 12:53:00,77.0,35.3,30.18,ENE,68,7.6,7.6,22,0.00,,CLR,0.00,VWS V14.01,2013-06-19 16:53:00,
2013-06-19 12:58:00,77.7,35.9,30.18,ENE,68,7.6,7.6,22,0.00,,CLR,0.00,VWS V14.01,2013-06-19 16:58:00,
2013-06-19 13:00:00,77.7,35.9,30.18,ENE,68,7.6,7.6,22,0.00,,CLR,0.00,VWS V14.01,2013-06-19 17:00:00,
2013-06-19 13:03:00,79.0,35.8,30.18,ENE,68,7.6,7.6,21,0.00,,CLR,0.00,VWS V14.01,2013-06-19 17:03:00,
2013-06-19 13:08:00,79.9,36.5,30.18,ENE,68,7.6,7.6,21,0.00,,CLR,0.00,VWS V14.01,2013-06-19 17:08:00,
2013-06-19 13:14:00,79.5,36.2,30.18,ENE,68,7.6,7.6,21,0.00,,CLR,0.00,VWS V14.01,2013-06-19 17:14:00,
2013-06-19 13:19:00,79.0,35.8,30.15,SSE,158,2.5,7.6,21,0.00,,CLR,0.00,VWS V14.01,2013-06-19 17:19:00,
2013-06-19 13:24:00,79.2,35.9,30.15,SSE,158,2.5,7.6,21,0.00,,CLR,0.00,VWS V14.01,2013-06-19 17:24:00,
2013-06-19 13:29:00,79.7,36.3,30.15,SSE,158,2.5,7.6,21,0.00,,CLR,0.00,VWS V14.01,2013-06-19 17:29:00,
2013-06-19 13:34:00,80.2,36.8,30.15,SSE,158,2.5,7.6,21,0.00,,CLR,0.00,VWS V14.01,2013-06-19 17:34:00,
2013-06-19 13:39:00,80.1,35.4,30.15,SSE,158,2.5,7.6,20,0.00,,CLR,0.00,VWS V14.01,2013-06-19 17:39:00,
2013-06-19 13:44:00,78.4,35.3,30.15,NW,315,1.6,7.6,21,0.00,,CLR,0.00,VWS V14.01,2013-06-19 17:44:00,
2013-06-19 13:49:00,78.3,33.9,30.15,NW,315,1.6,7.6,20,0.00,,CLR,0.00,VWS V14.01,2013-06-19 17:49:00,
2013-06-19 13:54:00,78.3,33.9,30.15,NW,315,1.6,7.6,20,0.00,,CLR,0.00,VWS V14.01,2013-06-19 17:54:00,
2013-06-19 13:59:00,77.4,33.2,30.15,NW,315,1.6,7.6,20,0.00,,CLR,0.00,VWS V14.01,2013-06-19 17:59:00,
2013-06-19 14:00:00,77.0,32.9,30.15,NW,315,1.6,7.6,20,0.00,,CLR,0.00,VWS V14.01,2013-06-19 18:00:00,
2013-06-19 14:04:00,79.0,34.5,30.15,ESE,112,2.5,2.5,20,0.00,,CLR,0.00,VWS V14.01,2013-06-19 18:04:00,
2013-06-19 14:09:00,79.2,34.7,30.15,ESE,112,2.5,2.5,20,0.00,,CLR,0.00,VWS V14.01,2013-06-19 18:09:00,
2013-06-19 14:14:00,79.5,35.0,30.15,SE,135,1.6,2.5,20,0.00,,CLR,0.00,VWS V14.01,2013-06-19 18:14:00,
2013-06-19 14:19:00,79.5,36.2,30.15,ESE,112,3.8,3.8,21,0.00,,CLR,0.00,VWS V14.01,2013-06-19 18:19:00,
2013-06-19 14:24:00,79.7,35.1,30.15,ESE,112,3.8,3.8,20,0.00,,CLR,0.00,VWS V14.01,2013-06-19 18:24:00,
2013-06-19 14:29:00,80.1,36.7,30.15,ESE,112,3.8,3.8,21,0.00,,CLR,0.00,VWS V14.01,2013-06-19 18:29:00,
2013-06-19 14:34:00,79.0,34.5,30.15,ESE,112,3.8,3.8,20,0.00,,CLR,0.00,VWS V14.01,2013-06-19 18:34:00,
2013-06-19 14:39:00,79.9,35.3,30.15,ESE,112,3.8,3.8,20,0.00,,CLR,0.00,VWS V14.01,2013-06-19 18:39:00,
2013-06-19 14:44:00,81.7,36.8,30.15,ESE,112,3.8,3.8,20,0.00,,CLR,0.00,VWS V14.01,2013-06-19 18:44:00,
2013-06-19 14:49:00,81.0,36.2,30.15,ESE,112,3.8,3.8,20,0.00,,CLR,0.00,VWS V14.01,2013-06-19 18:49:00,
2013-06-19 14:54:00,80.2,35.6,30.15,ESE,112,3.8,3.8,20,0.00,,CLR,0.00,VWS V14.01,2013-06-19 18:54:00,
2013-06-19 14:59:00,80.4,35.7,30.15,ESE,112,3.8,3.8,20,0.00,,CLR,0.00,VWS V14.01,2013-06-19 18:59:00,
2013-06-19 15:00:00,80.4,37.0,30.15,ESE,112,3.8,3.8,21,0.00,,CLR,0.00,VWS V14.01,2013-06-19 19:00:00,
2013-06-19 15:05:00,81.1,36.3,30.15,ESE,112,3.8,3.8,20,0.00,,CLR,0.00,VWS V14.01,2013-06-19 19:05:00,
2013-06-19 15:10:00,81.3,36.5,30.15,ESE,112,3.8,3.8,20,0.00,,CLR,0.00,VWS V14.01,2013-06-19 19:10:00,
2013-06-19 15:15:00,80.6,35.9,30.15,ESE,112,3.8,3.8,20,0.00,,CLR,0.00,VWS V14.01,2013-06-19 19:15:00,
2013-06-19 15:20:00,81.1,36.3,30.15,ESE,112,3.8,3.8,20,0.00,,CLR,0.00,VWS V14.01,2013-06-19 19:20:00,
2013-06-19 15:25:00,80.1,35.4,30.15,ESE,112,3.8,3.8,20,0.00,,CLR,0.00,VWS V14.01,2013-06-19 19:25:00,
2013-06-19 15:30:00,81.7,35.5,30.15,ESE,112,3.8,3.8,19,0.00,,CLR,0.00,VWS V14.01,2013-06-19 19:30:00,
2013-06-19 15:35:00,81.7,36.8,30.15,ESE,112,3.8,3.8,20,0.00,,CLR,0.00,VWS V14.01,2013-06-19 19:35:00,
2013-06-19 15:40:00,82.0,35.8,30.15,ESE,112,3.8,3.8,19,0.00,,CLR,0.00,VWS V14.01,2013-06-19 19:40:00,
2013-06-19 15:45:00,81.9,38.1,30.15,ESE,112,3.8,3.8,21,0.00,,CLR,0.00,VWS V14.01,2013-06-19 19:45:00,
2013-06-19 15:50:00,81.7,36.8,30.12,ESE,112,3.8,3.8,20,0.00,,CLR,0.00,VWS V14.01,2013-06-19 19:50:00,
2013-06-19 15:55:00,80.4,35.7,30.12,ESE,112,3.8,3.8,20,0.00,,CLR,0.00,VWS V14.01,2013-06-19 19:55:00,
2013-06-19 16:00:00,81.7,36.8,30.12,ESE,112,3.8,3.8,20,0.00,,CLR,0.00,VWS V14.01,2013-06-19 20:00:00,
2013-06-19 16:05:00,81.0,36.2,30.12,ESE,112,3.8,3.8,20,0.00,,CLR,0.00,VWS V14.01,2013-06-19 20:05:00,
2013-06-19 16:10:00,81.0,36.2,30.12,ESE,112,3.8,3.8,20,0.00,,CLR,0.00,VWS V14.01,2013-06-19 20:10:00,
2013-06-19 16:15:00,81.3,36.5,30.12,ESE,112,3.8,3.8,20,0.00,,CLR,0.00,VWS V14.01,2013-06-19 20:15:00,
2013-06-19 16:20:00,81.3,36.5,30.12,ESE,112,3.8,3.8,20,0.00,,CLR,0.00,VWS V14.01,2013-06-19 20:20:00,
2013-06-19 16:25:00,81.5,36.6,30.12,ESE,112,3.8,3.8,20,0.00,,CLR,0.00,VWS V14.01,2013-06-19 20:25:00,
2013-06-19 16:30:00,82.2,37.2,30.12,ESE,112,3.8,3.8,20,0.00,,CLR,0.00,VWS V14.01,2013-06-19 20:30:00,
2013-06-19 16:35:00,81.9,36.9,30.12,ESE,112,3.8,3.8,20,0.00,,CLR,0.00,VWS V14.01,2013-06-19 20:35:00,
2013-06-19 16:40:00,79.7,35.1,30.12,ESE,112,3.8,3.8,20,0.00,,CLR,0.00,VWS V14.01,2013-06-19 20:40:00,
2013-06-19 16:45:00,81.5,36.6,30.12,ESE,112,3.8,3.8,20,0.00,,CLR,0.00,VWS V14.01,2013-06-19 20:45:00,
2013-06-19 16:50:00,82.2,37.2,30.12,ESE,112,3.8,3.8,20,0.00,,CLR,0.00,VWS V14.01,2013-06-19 20:50:00,
2013-06-19 16:55:00,81.9,36.9,30.12,ESE,112,3.8,3.8,20,0.00,,CLR,0.00,VWS V14.01,2013-06-19 20:55:00,
2013-06-19 17:00:00,82.6,36.2,30.12,ESE,112,3.8,3.8,19,0.00,,CLR,0.00,VWS V14.01,2013-06-19 21:00:00,
2013-06-19 17:06:00,81.7,36.8,30.09,ESE,112,3.8,3.8,20,0.00,,CLR,0.00,VWS V14.01,2013-06-19 21:06:00,
2013-06-19 17:11:00,81.3,36.5,30.09,ESE,112,3.8,3.8,20,0.00,,CLR,0.00,VWS V14.01,2013-06-19 21:11:00,
2013-06-19 17:16:00,79.9,35.3,30.09,ESE,112,3.8,3.8,20,0.00,,CLR,0.00,VWS V14.01,2013-06-19 21:16:00,
2013-06-19 17:21:00,80.2,35.6,30.09,ESE,112,3.8,3.8,20,0.00,,CLR,0.00,VWS V14.01,2013-06-19 21:21:00,
2013-06-19 17:26:00,80.6,35.9,30.09,SSE,158,5.6,5.6,20,0.00,,CLR,0.00,VWS V14.01,2013-06-19 21:26:00,
2013-06-19 17:31:00,80.8,36.0,30.09,SSE,158,5.6,5.6,20,0.00,,CLR,0.00,VWS V14.01,2013-06-19 21:31:00,
2013-06-19 17:36:00,80.4,35.7,30.09,SSE,158,5.6,5.6,20,0.00,,CLR,0.00,VWS V14.01,2013-06-19 21:36:00,
2013-06-19 17:41:00,80.1,35.4,30.09,SSE,158,5.6,5.6,20,0.00,,CLR,0.00,VWS V14.01,2013-06-19 21:41:00,
2013-06-19 17:46:00,79.2,34.7,30.09,SSE,158,5.6,5.6,20,0.00,,CLR,0.00,VWS V14.01,2013-06-19 21:46:00,
2013-06-19 17:51:00,79.3,34.8,30.09,SSE,158,5.6,5.6,20,0.00,,CLR,0.00,VWS V14.01,2013-06-19 21:51:00,
2013-06-19 17:56:00,80.2,35.6,30.09,SSE,158,5.6,5.6,20,0.00,,CLR,0.00,VWS V14.01,2013-06-19 21:56:00,
2013-06-19 18:00:00,80.2,35.6,30.09,SSE,158,5.6,5.6,20,0.00,,CLR,0.00,VWS V14.01,2013-06-19 22:00:00,
2013-06-19 18:01:00,80.2,35.6,30.09,SSE,158,5.6,5.6,20,0.00,,CLR,0.00,VWS V14.01,2013-06-19 22:01:00,
2013-06-19 18:06:00,79.0,34.5,30.09,SSE,158,5.6,5.6,20,0.00,,CLR,0.00,VWS V14.01,2013-06-19 22:06:00,
2013-06-19 18:11:00,78.1,35.0,30.09,SW,225,3.6,5.6,21,0.00,,CLR,0.00,VWS V14.01,2013-06-19 22:11:00,
2013-06-19 18:16:00,79.3,36.0,30.09,SW,225,3.6,5.6,21,0.00,,CLR,0.00,VWS V14.01,2013-06-19 22:16:00,
2013-06-19 18:21:00,80.6,35.9,30.09,SW,225,3.6,5.6,20,0.00,,CLR,0.00,VWS V14.01,2013-06-19 22:21:00,
2013-06-19 18:26:00,80.6,35.9,30.09,NNW,338,1.1,5.6,20,0.00,,CLR,0.00,VWS V14.01,2013-06-19 22:26:00,
2013-06-19 18:31:00,80.8,36.0,30.09,NNW,338,1.1,5.6,20,0.00,,CLR,0.00,VWS V14.01,2013-06-19 22:31:00,
2013-06-19 18:36:00,79.7,35.1,30.09,NNW,338,1.1,5.6,20,0.00,,CLR,0.00,VWS V14.01,2013-06-19 22:36:00,
2013-06-19 18:41:00,81.0,36.2,30.09,ESE,112,1.3,5.6,20,0.00,,CLR,0.00,VWS V14.01,2013-06-19 22:41:00,
2013-06-19 18:46:00,79.2,35.9,30.09,ESE,112,1.3,5.6,21,0.00,,CLR,0.00,VWS V14.01,2013-06-19 22:46:00,
2013-06-19 18:51:00,78.4,36.5,30.09,ESE,112,1.3,5.6,22,0.00,,CLR,0.00,VWS V14.01,2013-06-19 22:51:00,
2013-06-19 18:56:00,79.7,37.5,30.09,ESE,112,1.3,5.6,22,0.00,,CLR,0.00,VWS V14.01,2013-06-19 22:56:00,
2013-06-19 19:00:00,78.8,35.6,30.09,ESE,112,1.3,5.6,21,0.00,,CLR,0.00,VWS V14.01,2013-06-19 23:00:00,
2013-06-19 19:01:00,78.4,35.3,30.09,ESE,112,1.3,1.3,21,0.00,,CLR,0.00,VWS V14.01,2013-06-19 23:01:00,
2013-06-19 19:06:00,77.9,34.9,30.09,ESE,112,1.3,1.3,21,0.00,,CLR,0.00,VWS V14.01,2013-06-19 23:06:00,
2013-06-19 19:11:00,79.0,35.8,30.09,South,180,2.7,2.7,21,0.00,,CLR,0.00,VWS V14.01,2013-06-19 23:11:00,
2013-06-19 19:16:00,76.8,35.1,30.09,South,180,2.7,2.7,22,0.00,,CLR,0.00,VWS V14.01,2013-06-19 23:16:00,
2013-06-19 19:21:00,76.5,34.8,30.09,South,180,2.7,2.7,22,0.00,,CLR,0.00,VWS V14.01,2013-06-19 23:21:00,
2013-06-19 19:26:00,76.1,34.5,30.09,South,180,2.7,2.7,22,0.00,,CLR,0.00,VWS V14.01,2013-06-19 23:26:00,
2013-06-19 19:31:00,76.6,36.1,30.09,South,180,2.7,2.7,23,0.00,,CLR,0.00,VWS V14.01,2013-06-19 23:31:00,
2013-06-19 19:36:00,77.2,36.5,30.09,South,180,2.7,2.7,23,0.00,,CLR,0.00,VWS V14.01,2013-06-19 23:36:00,
2013-06-19 19:41:00,77.5,35.7,30.09,SE,135,0.0,2.7,22,0.00,,CLR,0.00,VWS V14.01,2013-06-19 23:41:00,
2013-06-19 19:46:00,79.0,38.1,30.09,SE,135,0.0,2.7,23,0.00,,CLR,0.00,VWS V14.01,2013-06-19 23:46:00,
2013-06-19 19:51:00,79.3,38.4,30.09,East,90,0.0,2.7,23,0.00,,CLR,0.00,VWS V14.01,2013-06-19 23:51:00,
2013-06-19 19:56:00,78.8,37.9,30.09,East,90,0.0,2.7,23,0.00,,CLR,0.00,VWS V14.01,2013-06-19 23:56:00,
2013-06-19 20:00:00,77.9,37.2,30.09,East,90,0.0,2.7,23,0.00,,CLR,0.00,VWS V14.01,2013-06-20 00:00:00,
2013-06-19 20:01:00,77.9,37.2,30.09,East,90,0.0,0.0,23,0.00,,CLR,0.00,VWS V14.01,2013-06-20 00:01:00,
2013-06-19 20:06:00,76.8,36.2,30.09,South,180,1.3,1.3,23,0.00,,CLR,0.00,VWS V14.01,2013-06-20 00:06:00,
2013-06-19 20:11:00,76.1,36.7,30.09,WSW,248,2.2,2.2,24,0.00,,CLR,0.00,VWS V14.01,2013-06-20 00:11:00,
2013-06-19 20:17:00,75.6,37.3,30.09,WSW,248,2.2,2.2,25,0.00,,CLR,0.00,VWS V14.01,2013-06-20 00:17:00,
2013-06-19 20:22:00,75.6,37.3,30.09,WSW,248,2.2,2.2,25,0.00,,CLR,0.00,VWS V14.01,2013-06-20 00:22:00,
2013-06-19 20:27:00,75.7,38.5,30.09,WSW,248,2.2,2.2,26,0.00,,CLR,0.00,VWS V14.01,2013-06-20 00:27:00,
2013-06-19 20:32:00,74.8,38.7,30.09,WSW,248,2.2,2.2,27,0.00,,CLR,0.00,VWS V14.01,2013-06-20 00:32:00,
2013-06-19 20:37:00,72.5,40.2,30.09,WSW,248,2.2,2.2,31,0.00,,CLR,0.00,VWS V14.01,2013-06-20 00:37:00,
2013-06-19 20:42:00,71.4,40.0,30.09,WSW,248,2.2,2.2,32,0.00,,CLR,0.00,VWS V14.01,2013-06-20 00:42:00,
2013-06-19 20:47:00,70.3,40.7,30.09,WSW,248,2.2,2.2,34,0.00,,CLR,0.00,VWS V14.01,2013-06-20 00:47:00,
2013-06-19 20:52:00,69.3,40.5,30.09,WSW,248,2.2,2.2,35,0.00,,CLR,0.00,VWS V14.01,2013-06-20 00:52:00,
2013-06-19 20:57:00,68.5,39.8,30.09,WSW,248,2.2,2.2,35,0.00,,CLR,0.00,VWS V14.01,2013-06-20 00:57:00,
2013-06-19 21:02:00,67.3,40.1,30.09,WSW,248,2.2,2.2,37,0.00,,CLR,0.00,VWS V14.01,2013-06-20 01:02:00,
2013-06-19 21:07:00,66.4,39.3,30.09,WSW,248,2.2,2.2,37,0.00,,CLR,0.00,VWS V14.01,2013-06-20 01:07:00,
2013-06-19 21:12:00,66.0,40.4,30.09,WSW,248,2.2,2.2,39,0.00,,CLR,0.00,VWS V14.01,2013-06-20 01:12:00,
2013-06-19 21:17:00,65.7,40.0,30.09,WSW,248,2.2,2.2,39,0.00,,CLR,0.00,VWS V14.01,2013-06-20 01:17:00,
2013-06-19 21:22:00,64.9,40.1,30.09,WSW,248,2.2,2.2,40,0.00,,CLR,0.00,VWS V14.01,2013-06-20 01:22:00,
2013-06-19 21:27:00,64.2,40.0,30.09,WSW,248,2.2,2.2,41,0.00,,CLR,0.00,VWS V14.01,2013-06-20 01:27:00,
2013-06-19 21:32:00,63.7,41.4,30.09,WSW,248,2.2,2.2,44,0.00,,CLR,0.00,VWS V14.01,2013-06-20 01:32:00,
2013-06-19 21:37:00,63.1,42.0,30.09,WSW,248,2.2,2.2,46,0.00,,CLR,0.00,VWS V14.01,2013-06-20 01:37:00,
2013-06-19 21:42:00,62.6,40.4,30.09,WSW,248,2.2,2.2,44,0.00,,CLR,0.00,VWS V14.01,2013-06-20 01:42:00,
2013-06-19 21:47:00,62.6,40.4,30.09,WSW,248,2.2,2.2,44,0.00,,CLR,0.00,VWS V14.01,2013-06-20 01:47:00,
2013-06-19 21:52:00,62.1,41.1,30.09,WSW,248,2.2,2.2,46,0.00,,CLR,0.00,VWS V14.01,2013-06-20 01:52:00,
2013-06-19 21:57:00,61.9,40.9,30.09,WSW,248,2.2,2.2,46,0.00,,CLR,0.00,VWS V14.01,2013-06-20 01:57:00,
2013-06-19 22:00:00,61.9,42.0,30.09,WSW,248,2.2,2.2,48,0.00,,CLR,0.00,VWS V14.01,2013-06-20 02:00:00,
2013-06-19 22:02:00,61.7,41.8,30.06,WSW,248,2.2,2.2,48,0.00,,CLR,0.00,VWS V14.01,2013-06-20 02:02:00,
2013-06-19 22:07:00,61.3,42.6,30.06,WSW,248,2.2,2.2,50,0.00,,CLR,0.00,VWS V14.01,2013-06-20 02:07:00,
2013-06-19 22:12:00,61.7,42.9,30.06,WSW,248,2.2,2.2,50,0.00,,CLR,0.00,VWS V14.01,2013-06-20 02:12:00,
2013-06-19 22:17:00,62.2,43.4,30.09,WSW,248,2.2,2.2,50,0.00,,CLR,0.00,VWS V14.01,2013-06-20 02:17:00,
2013-06-19 22:22:00,62.2,43.4,30.09,WSW,248,2.2,2.2,50,0.00,,CLR,0.00,VWS V14.01,2013-06-20 02:22:00,
2013-06-19 22:27:00,62.1,43.7,30.09,WSW,248,2.2,2.2,51,0.00,,CLR,0.00,VWS V14.01,2013-06-20 02:27:00,
2013-06-19 22:32:00,61.9,43.6,30.09,WSW,248,2.2,2.2,51,0.00,,CLR,0.00,VWS V14.01,2013-06-20 02:32:00,
2013-06-19 22:37:00,61.5,43.8,30.09,WSW,248,2.2,2.2,52,0.00,,CLR,0.00,VWS V14.01,2013-06-20 02:37:00,
2013-06-19 22:42:00,61.3,44.1,30.09,WSW,248,2.2,2.2,53,0.00,,CLR,0.00,VWS V14.01,2013-06-20 02:42:00,
2013-06-19 22:47:00,61.2,43.4,30.09,WSW,248,2.2,2.2,52,0.00,,CLR,0.00,VWS V14.01,2013-06-20 02:47:00,
2013-06-19 22:52:00,61.2,43.4,30.09,WSW,248,2.2,2.2,52,0.00,,CLR,0.00,VWS V14.01,2013-06-20 02:52:00,
2013-06-19 22:57:00,61.0,43.2,30.09,WSW,248,2.2,2.2,52,0.00,,CLR,0.00,VWS V14.01,2013-06-20 02:57:00,
2013-06-19 23:00:00,60.8,43.6,30.09,WSW,248,2.2,2.2,53,0.00,,CLR,0.00,VWS V14.01,2013-06-20 03:00:00,
2013-06-19 23:02:00,60.6,42.9,30.12,WSW,248,2.2,2.2,52,0.00,,CLR,0.00,VWS V14.01,2013-06-20 03:02:00,
2013-06-19 23:08:00,60.6,43.9,30.12,ESE,112,0.0,2.2,54,0.00,,CLR,0.00,VWS V14.01,2013-06-20 03:08:00,
2013-06-19 23:13:00,61.0,48.3,30.12,ESE,112,0.0,2.2,63,0.00,,CLR,0.00,VWS V14.01,2013-06-20 03:13:00,
2013-06-19 23:18:00,61.9,49.2,30.09,ESE,112,0.0,2.2,63,0.00,,CLR,0.00,VWS V14.01,2013-06-20 03:18:00,
2013-06-19 23:23:00,62.2,49.1,30.09,ESE,112,0.0,2.2,62,0.00,,CLR,0.00,VWS V14.01,2013-06-20 03:23:00,
2013-06-19 23:28:00,62.8,49.6,30.09,ESE,112,0.0,2.2,62,0.00,,CLR,0.00,VWS V14.01,2013-06-20 03:28:00,
2013-06-19 23:33:00,63.0,49.8,30.09,ESE,112,0.0,2.2,62,0.00,,CLR,0.00,VWS V14.01,2013-06-20 03:33:00,
2013-06-19 23:38:00,62.8,49.6,30.09,ESE,112,0.0,2.2,62,0.00,,CLR,0.00,VWS V14.01,2013-06-20 03:38:00,
2013-06-19 23:43:00,62.6,49.8,30.09,ESE,112,0.0,2.2,63,0.00,,CLR,0.00,VWS V14.01,2013-06-20 03:43:00,
2013-06-19 23:48:00,62.6,49.8,30.09,ESE,112,0.0,2.2,63,0.00,,CLR,0.00,VWS V14.01,2013-06-20 03:48:00,
2013-06-19 23:53:00,62.4,50.5,30.09,ESE,112,0.0,2.2,65,0.00,,CLR,0.00,VWS V14.01,2013-06-20 03:53:00,
2013-06-19 23:59:00,62.4,50.1,30.09,ESE,112,0.0,2.2,64,0.00,,CLR,0.00,VWS V14.01,2013-06-20 03:59:00,